Find OneWeb SL0439

NORAD ID: 51635 Int'l Des: 2022-012 Owner: ONEWEBN Country: UK Constellation: oneweb operational
LEOCIRCULARPOLARONEWEB_TYPE

当前视图

正在加载3D地球...

About OneWeb SL0439

OneWeb SL0439 (NORAD 51635) is a oneweb constellation satellite launched Feb 10, 2022 by ONEWEBN of UK. It operates in LEO, CIRCULAR, POLAR, ONEWEB_TYPE orbit with a mass of 148.00 kg.

关于 OneWeb SL0439

正在加载描述...

即将过境

Passes for default location (London). Set your location on the main map for personalized predictions.

高度历史

Loading altitude history...

两行轨道根数

1 51635U 22012P 26169.32786156 -.00006640 00000-0 -19096-1 0 9993
2 51635 87.8833 36.0412 0001889 81.0063 279.1278 13.10283197209472
Epoch: Jun 18, 2026 • Age: 14 hours

当前状态

高度 1225.3 km
速度 7.24 km/s
星下点 -0.22°S, 15.41°W
发射日期 Feb 10, 2022
运行时间 4.3 years
类型 internet

技术详情

分类 Payload
质量 148.00 kg
干质量 140.00 kg
总质量 148.00 kg
长度 1.30 m
直径 1.00 m
跨度 5.00 m
形状 Trapezoid+2 pan
制造商 ONEWUS
平台类型 ARROW
阶段状态 In Orbit
所有者/国家 ONEWEBN/UK

Most Searched